Time,TemperatureF,DewpointF,PressureIn,WindDirection,WindDirectionDegrees,WindSpeedMPH,WindSpeedGustMPH,Humidity,HourlyPrecipIn,Conditions,Clouds,dailyrainin,SoftwareType,DateUTC
2013-12-09 00:00:00,32.2,30.9,30.12,SE,141,0.0,5.0,95,0.00,,,0.00,Wunderground v.1.15,2013-12-09 06:00:00,
2013-12-09 00:05:00,31.7,30.4,30.12,SE,141,0.0,5.0,95,0.00,,,0.00,Wunderground v.1.15,2013-12-09 06:05:00,
2013-12-09 00:15:00,31.9,30.9,30.12,SE,141,0.0,5.0,96,0.00,,,0.00,Wunderground v.1.15,2013-12-09 06:15:00,
2013-12-09 00:20:00,31.6,30.6,30.11,SE,141,0.0,5.0,96,0.00,,,0.00,Wunderground v.1.15,2013-12-09 06:20:00,
2013-12-09 00:25:00,31.1,29.8,30.11,SE,141,0.0,5.0,95,0.00,,,0.00,Wunderground v.1.15,2013-12-09 06:25:00,
2013-12-09 00:30:00,31.0,30.0,30.10,SE,141,0.0,5.0,96,0.00,,,0.00,Wunderground v.1.15,2013-12-09 06:30:00,
2013-12-09 00:35:00,31.5,30.5,30.10,SE,141,0.0,5.0,96,0.00,,,0.00,Wunderground v.1.15,2013-12-09 06:35:00,
2013-12-09 00:40:00,31.9,31.1,30.10,SE,141,0.0,5.0,97,0.00,,,0.00,Wunderground v.1.15,2013-12-09 06:40:00,
2013-12-09 00:50:00,31.0,29.7,30.09,SE,141,0.0,5.0,95,0.00,,,0.00,Wunderground v.1.15,2013-12-09 06:50:00,
2013-12-09 00:55:00,30.3,29.0,30.08,SE,141,0.0,5.0,95,0.00,,,0.00,Wunderground v.1.15,2013-12-09 06:55:00,
2013-12-09 01:00:00,30.0,28.7,30.08,SE,141,0.0,5.0,95,0.00,,,0.00,Wunderground v.1.15,2013-12-09 07:00:00,
2013-12-09 01:05:00,30.0,29.0,30.08,SE,141,0.0,5.0,96,0.00,,,0.00,Wunderground v.1.15,2013-12-09 07:05:00,
2013-12-09 01:15:00,30.8,30.0,30.08,SE,141,0.0,5.0,97,0.00,,,0.00,Wunderground v.1.15,2013-12-09 07:15:00,
2013-12-09 01:20:00,31.2,30.4,30.09,SE,141,0.0,5.0,97,0.00,,,0.00,Wunderground v.1.15,2013-12-09 07:20:00,
2013-12-09 01:25:00,31.9,31.1,30.10,SSE,157,1.0,5.0,97,0.00,,,0.00,Wunderground v.1.15,2013-12-09 07:25:00,
2013-12-09 01:30:00,32.5,32.0,30.10,SSW,194,1.0,1.0,98,0.00,,,0.00,Wunderground v.1.15,2013-12-09 07:30:00,
2013-12-09 01:35:00,33.0,32.2,30.10,SE,143,0.0,5.0,97,0.00,,,0.00,Wunderground v.1.15,2013-12-09 07:35:00,
2013-12-09 01:40:00,33.3,32.8,30.10,SE,146,0.0,5.0,98,0.00,,,0.00,Wunderground v.1.15,2013-12-09 07:40:00,
2013-12-09 01:50:00,33.9,33.4,30.10,SE,146,0.0,5.0,98,0.00,,,0.00,Wunderground v.1.15,2013-12-09 07:50:00,
2013-12-09 01:55:00,34.2,33.7,30.10,SE,146,0.0,5.0,98,0.00,,,0.00,Wunderground v.1.15,2013-12-09 07:55:00,
2013-12-09 02:00:00,34.4,33.9,30.10,SE,146,0.0,5.0,98,0.00,,,0.00,Wunderground v.1.15,2013-12-09 08:00:00,
2013-12-09 02:05:00,34.7,34.2,30.10,SE,146,0.0,5.0,98,0.00,,,0.00,Wunderground v.1.15,2013-12-09 08:05:00,
2013-12-09 02:10:00,34.9,34.4,30.10,SE,145,0.0,5.0,98,0.00,,,0.00,Wunderground v.1.15,2013-12-09 08:10:00,
2013-12-09 02:20:00,35.3,34.8,30.10,SE,145,0.0,5.0,98,0.00,,,0.00,Wunderground v.1.15,2013-12-09 08:20:00,
2013-12-09 02:25:00,35.6,35.1,30.10,SE,145,0.0,5.0,98,0.00,,,0.00,Wunderground v.1.15,2013-12-09 08:25:00,
2013-12-09 02:30:00,35.8,35.3,30.10,SE,145,0.0,5.0,98,0.00,,,0.00,Wunderground v.1.15,2013-12-09 08:30:00,
2013-12-09 02:35:00,36.0,35.5,30.10,SE,145,0.0,5.0,98,0.00,,,0.00,Wunderground v.1.15,2013-12-09 08:35:00,
2013-12-09 02:40:00,36.2,35.7,30.10,SE,145,0.0,5.0,98,0.00,,,0.00,Wunderground v.1.15,2013-12-09 08:40:00,
2013-12-09 02:50:00,36.6,36.1,30.10,SSE,155,0.0,5.0,98,0.00,,,0.00,Wunderground v.1.15,2013-12-09 08:50:00,
2013-12-09 02:55:00,36.8,36.3,30.10,SSE,155,0.0,5.0,98,0.00,,,0.00,Wunderground v.1.15,2013-12-09 08:55:00,
2013-12-09 03:00:00,36.9,36.4,30.10,NNW,336,0.0,5.0,98,0.00,,,0.00,Wunderground v.1.15,2013-12-09 09:00:00,
2013-12-09 03:05:00,36.9,36.4,30.10,NNW,336,0.0,5.0,98,0.00,,,0.00,Wunderground v.1.15,2013-12-09 09:05:00,
2013-12-09 03:15:00,37.0,36.5,30.10,NNW,336,0.0,5.0,98,0.00,,,0.00,Wunderground v.1.15,2013-12-09 09:15:00,
2013-12-09 03:20:00,37.0,36.5,30.09,NNW,336,0.0,5.0,98,0.00,,,0.00,Wunderground v.1.15,2013-12-09 09:20:00,
2013-12-09 03:25:00,37.0,36.5,30.09,NNW,336,0.0,5.0,98,0.00,,,0.00,Wunderground v.1.15,2013-12-09 09:25:00,
2013-12-09 03:30:00,37.0,36.5,30.09,NNW,336,0.0,5.0,98,0.00,,,0.00,Wunderground v.1.15,2013-12-09 09:30:00,
2013-12-09 03:35:00,37.0,36.5,30.09,NNW,336,0.0,5.0,98,0.00,,,0.00,Wunderground v.1.15,2013-12-09 09:35:00,
2013-12-09 03:45:00,37.0,36.5,30.09,NNW,336,0.0,5.0,98,0.00,,,0.00,Wunderground v.1.15,2013-12-09 09:45:00,
2013-12-09 03:50:00,37.1,36.6,30.09,NNW,336,0.0,5.0,98,0.00,,,0.00,Wunderground v.1.15,2013-12-09 09:50:00,
2013-12-09 03:55:00,37.1,36.6,30.09,NNW,336,0.0,5.0,98,0.00,,,0.00,Wunderground v.1.15,2013-12-09 09:55:00,
2013-12-09 04:00:00,37.1,36.6,30.09,NNW,336,0.0,5.0,98,0.00,,,0.00,Wunderground v.1.15,2013-12-09 10:00:00,
2013-12-09 04:05:00,37.2,36.7,30.09,NNW,336,0.0,5.0,98,0.00,,,0.00,Wunderground v.1.15,2013-12-09 10:05:00,
2013-12-09 04:15:00,37.3,36.8,30.09,NNW,336,0.0,5.0,98,0.00,,,0.00,Wunderground v.1.15,2013-12-09 10:15:00,
2013-12-09 04:20:00,37.3,36.8,30.09,NNW,336,0.0,5.0,98,0.00,,,0.00,Wunderground v.1.15,2013-12-09 10:20:00,
2013-12-09 04:25:00,37.3,36.8,30.09,NNW,336,0.0,5.0,98,0.00,,,0.00,Wunderground v.1.15,2013-12-09 10:25:00,
2013-12-09 04:30:00,37.4,36.9,30.08,NNW,336,0.0,5.0,98,0.00,,,0.00,Wunderground v.1.15,2013-12-09 10:30:00,
2013-12-09 04:35:00,37.4,36.9,30.08,NNW,336,0.0,5.0,98,0.00,,,0.00,Wunderground v.1.15,2013-12-09 10:35:00,
2013-12-09 04:40:00,37.3,36.8,30.08,NNW,336,0.0,5.0,98,0.00,,,0.00,Wunderground v.1.15,2013-12-09 10:40:00,
2013-12-09 04:50:00,37.2,36.7,30.08,NNW,336,0.0,5.0,98,0.00,,,0.00,Wunderground v.1.15,2013-12-09 10:50:00,
2013-12-09 05:00:00,37.2,36.7,30.08,NNW,336,0.0,5.0,98,0.00,,,0.00,Wunderground v.1.15,2013-12-09 11:00:00,
2013-12-09 05:05:00,37.3,36.8,30.08,NNW,336,0.0,5.0,98,0.00,,,0.00,Wunderground v.1.15,2013-12-09 11:05:00,
2013-12-09 05:10:00,37.3,36.8,30.09,NNW,336,0.0,5.0,98,0.00,,,0.00,Wunderground v.1.15,2013-12-09 11:10:00,
2013-12-09 05:20:00,37.4,36.9,30.09,NNW,336,0.0,5.0,98,0.00,,,0.00,Wunderground v.1.15,2013-12-09 11:20:00,
2013-12-09 05:25:00,37.5,37.0,30.09,NNW,336,0.0,5.0,98,0.00,,,0.00,Wunderground v.1.15,2013-12-09 11:25:00,
2013-12-09 05:30:00,37.5,37.0,30.09,NNW,336,0.0,5.0,98,0.00,,,0.00,Wunderground v.1.15,2013-12-09 11:30:00,
2013-12-09 05:35:00,37.6,37.1,30.09,NNW,336,0.0,5.0,98,0.00,,,0.01,Wunderground v.1.15,2013-12-09 11:35:00,
2013-12-09 05:45:00,37.7,37.2,30.09,NNW,336,0.0,5.0,98,0.00,,,0.01,Wunderground v.1.15,2013-12-09 11:45:00,
2013-12-09 05:50:00,37.7,37.2,30.09,NNW,336,0.0,5.0,98,0.00,,,0.01,Wunderground v.1.15,2013-12-09 11:50:00,
2013-12-09 05:55:00,37.8,37.3,30.09,NNW,336,0.0,5.0,98,0.00,,,0.01,Wunderground v.1.15,2013-12-09 11:55:00,
2013-12-09 06:00:00,37.8,37.3,30.09,NNW,336,0.0,5.0,98,0.00,,,0.01,Wunderground v.1.15,2013-12-09 12:00:00,
2013-12-09 06:05:00,37.9,37.4,30.09,NNW,336,0.0,5.0,98,0.00,,,0.01,Wunderground v.1.15,2013-12-09 12:05:00,
2013-12-09 06:10:00,37.9,37.4,30.10,NNW,336,0.0,5.0,98,0.00,,,0.01,Wunderground v.1.15,2013-12-09 12:10:00,
2013-12-09 06:20:00,38.1,37.6,30.10,NNW,336,0.0,5.0,98,0.00,,,0.01,Wunderground v.1.15,2013-12-09 12:20:00,
2013-12-09 06:25:00,38.2,37.7,30.11,NNW,336,0.0,5.0,98,0.00,,,0.01,Wunderground v.1.15,2013-12-09 12:25:00,
2013-12-09 06:30:00,38.2,37.7,30.11,NNW,336,0.0,5.0,98,0.00,,,0.01,Wunderground v.1.15,2013-12-09 12:30:00,
2013-12-09 06:35:00,38.3,37.8,30.11,NNW,334,0.0,5.0,98,0.00,,,0.01,Wunderground v.1.15,2013-12-09 12:35:00,
2013-12-09 06:45:00,38.4,37.9,30.11,NNW,337,0.0,5.0,98,0.00,,,0.01,Wunderground v.1.15,2013-12-09 12:45:00,
2013-12-09 06:50:00,38.4,37.9,30.11,ESE,107,0.0,5.0,98,0.00,,,0.01,Wunderground v.1.15,2013-12-09 12:50:00,
2013-12-09 06:55:00,38.4,37.9,30.11,ESE,107,0.0,5.0,98,0.00,,,0.01,Wunderground v.1.15,2013-12-09 12:55:00,
2013-12-09 07:00:00,38.4,37.9,30.11,ESE,107,0.0,5.0,98,0.00,,,0.01,Wunderground v.1.15,2013-12-09 13:00:00,
2013-12-09 07:05:00,38.4,37.9,30.11,ESE,107,0.0,5.0,98,0.00,,,0.01,Wunderground v.1.15,2013-12-09 13:05:00,
2013-12-09 07:10:00,38.4,37.9,30.11,ESE,107,0.0,5.0,98,0.00,,,0.01,Wunderground v.1.15,2013-12-09 13:10:00,
2013-12-09 07:20:00,38.4,37.9,30.12,ESE,107,0.0,5.0,98,0.00,,,0.01,Wunderground v.1.15,2013-12-09 13:20:00,
2013-12-09 07:25:00,38.4,37.9,30.12,ESE,107,0.0,5.0,98,0.00,,,0.01,Wunderground v.1.15,2013-12-09 13:25:00,
2013-12-09 07:30:00,38.5,38.0,30.12,SE,126,0.0,5.0,98,0.00,,,0.01,Wunderground v.1.15,2013-12-09 13:30:00,
2013-12-09 07:35:00,38.5,38.0,30.13,East,88,0.0,5.0,98,0.00,,,0.01,Wunderground v.1.15,2013-12-09 13:35:00,
2013-12-09 07:40:00,38.5,38.0,30.13,ESE,117,1.0,5.0,98,0.00,,,0.02,Wunderground v.1.15,2013-12-09 13:40:00,
2013-12-09 07:50:00,38.4,37.9,30.14,ESE,113,2.0,5.0,98,0.00,,,0.02,Wunderground v.1.15,2013-12-09 13:50:00,
2013-12-09 07:55:00,38.2,37.7,30.14,ESE,104,2.0,5.0,98,0.00,,,0.02,Wunderground v.1.15,2013-12-09 13:55:00,
2013-12-09 08:00:00,38.1,37.6,30.14,ESE,112,2.0,2.0,98,0.00,,,0.02,Wunderground v.1.15,2013-12-09 14:00:00,
2013-12-09 08:05:00,38.0,37.5,30.15,SE,126,2.0,5.0,98,0.00,,,0.02,Wunderground v.1.15,2013-12-09 14:05:00,
2013-12-09 08:10:00,37.9,37.4,30.15,East,94,2.0,2.0,98,0.00,,,0.02,Wunderground v.1.15,2013-12-09 14:10:00,
2013-12-09 08:20:00,37.7,37.2,30.14,ESE,117,2.0,2.0,98,0.00,,,0.02,Wunderground v.1.15,2013-12-09 14:20:00,
2013-12-09 08:25:00,37.7,37.2,30.14,ESE,105,2.0,5.0,98,0.00,,,0.02,Wunderground v.1.15,2013-12-09 14:25:00,
2013-12-09 08:30:00,37.6,37.1,30.14,ESE,120,2.0,5.0,98,0.00,,,0.02,Wunderground v.1.15,2013-12-09 14:30:00,
2013-12-09 08:35:00,37.4,36.9,30.14,SE,139,3.0,5.0,98,0.00,,,0.02,Wunderground v.1.15,2013-12-09 14:35:00,
2013-12-09 08:45:00,37.1,36.6,30.15,SE,126,3.0,5.0,98,0.00,,,0.02,Wunderground v.1.15,2013-12-09 14:45:00,
2013-12-09 08:50:00,37.1,36.6,30.15,ENE,78,2.0,5.0,98,0.00,,,0.02,Wunderground v.1.15,2013-12-09 14:50:00,
2013-12-09 08:55:00,37.2,36.7,30.15,East,86,2.0,5.0,98,0.00,,,0.02,Wunderground v.1.15,2013-12-09 14:55:00,
2013-12-09 09:00:00,37.3,36.8,30.15,East,97,2.0,2.0,98,0.00,,,0.02,Wunderground v.1.15,2013-12-09 15:00:00,
2013-12-09 09:05:00,37.4,36.9,30.15,East,81,2.0,3.0,98,0.00,,,0.02,Wunderground v.1.15,2013-12-09 15:05:00,
2013-12-09 09:10:00,37.5,37.0,30.16,ENE,62,2.0,2.0,98,0.00,,,0.02,Wunderground v.1.15,2013-12-09 15:10:00,
2013-12-09 09:20:00,37.5,37.0,30.16,East,93,2.0,2.0,98,0.00,,,0.02,Wunderground v.1.15,2013-12-09 15:20:00,
2013-12-09 09:25:00,37.5,37.0,30.16,ESE,106,2.0,3.0,98,0.00,,,0.02,Wunderground v.1.15,2013-12-09 15:25:00,
2013-12-09 09:30:00,37.5,37.0,30.17,East,91,2.0,2.0,98,0.00,,,0.02,Wunderground v.1.15,2013-12-09 15:30:00,
2013-12-09 09:35:00,37.5,37.0,30.17,SE,140,2.0,3.0,98,0.00,,,0.02,Wunderground v.1.15,2013-12-09 15:35:00,
2013-12-09 09:45:00,37.5,37.0,30.18,NNE,22,2.0,5.0,98,0.00,,,0.02,Wunderground v.1.15,2013-12-09 15:45:00,
2013-12-09 09:50:00,37.3,36.8,30.18,East,90,2.0,2.0,98,0.00,,,0.02,Wunderground v.1.15,2013-12-09 15:50:00,
2013-12-09 09:55:00,37.4,36.9,30.19,East,86,2.0,5.0,98,0.00,,,0.02,Wunderground v.1.15,2013-12-09 15:55:00,
2013-12-09 10:00:00,37.3,36.8,30.19,NE,36,2.0,5.0,98,0.00,,,0.02,Wunderground v.1.15,2013-12-09 16:00:00,
2013-12-09 10:05:00,37.4,36.9,30.19,NE,53,1.0,5.0,98,0.00,,,0.02,Wunderground v.1.15,2013-12-09 16:05:00,
2013-12-09 10:15:00,37.7,37.2,30.18,ENE,63,1.0,5.0,98,0.00,,,0.03,Wunderground v.1.15,2013-12-09 16:15:00,
2013-12-09 10:20:00,37.8,37.3,30.18,ENE,57,0.0,5.0,98,0.00,,,0.03,Wunderground v.1.15,2013-12-09 16:20:00,
2013-12-09 10:25:00,38.0,37.5,30.18,East,85,1.0,5.0,98,0.00,,,0.03,Wunderground v.1.15,2013-12-09 16:25:00,
2013-12-09 10:30:00,38.1,37.6,30.18,East,92,2.0,5.0,98,0.00,,,0.03,Wunderground v.1.15,2013-12-09 16:30:00,
2013-12-09 10:35:00,38.2,37.7,30.18,ESE,123,2.0,5.0,98,0.00,,,0.03,Wunderground v.1.15,2013-12-09 16:35:00,
2013-12-09 10:45:00,38.3,37.8,30.18,NE,55,1.0,5.0,98,0.00,,,0.03,Wunderground v.1.15,2013-12-09 16:45:00,
2013-12-09 10:55:00,38.3,37.8,30.17,SE,126,1.0,5.0,98,0.00,,,0.03,Wunderground v.1.15,2013-12-09 16:55:00,
2013-12-09 11:00:00,38.3,37.8,30.18,ENE,64,1.0,5.0,98,0.00,,,0.03,Wunderground v.1.15,2013-12-09 17:00:00,
2013-12-09 11:05:00,38.3,37.8,30.18,East,79,1.0,5.0,98,0.00,,,0.03,Wunderground v.1.15,2013-12-09 17:05:00,
2013-12-09 11:10:00,38.4,37.9,30.18,NE,55,1.0,5.0,98,0.00,,,0.03,Wunderground v.1.15,2013-12-09 17:10:00,
2013-12-09 11:20:00,38.4,37.9,30.18,East,94,1.0,5.0,98,0.00,,,0.03,Wunderground v.1.15,2013-12-09 17:20:00,
2013-12-09 11:30:00,38.4,37.9,30.18,East,91,1.0,5.0,98,0.00,,,0.03,Wunderground v.1.15,2013-12-09 17:30:00,
2013-12-09 11:35:00,38.4,37.9,30.18,East,95,0.0,5.0,98,0.00,,,0.03,Wunderground v.1.15,2013-12-09 17:35:00,
2013-12-09 11:45:00,38.6,38.1,30.18,NNE,12,1.0,4.0,98,0.00,,,0.03,Wunderground v.1.15,2013-12-09 17:45:00,
2013-12-09 11:50:00,38.6,38.1,30.18,North,355,1.0,5.0,98,0.00,,,0.03,Wunderground v.1.15,2013-12-09 17:50:00,
2013-12-09 11:55:00,38.5,38.0,30.18,North,355,2.0,5.0,98,0.00,,,0.03,Wunderground v.1.15,2013-12-09 17:55:00,
2013-12-09 12:00:00,38.4,37.9,30.18,NNE,18,2.0,5.0,98,0.00,,,0.03,Wunderground v.1.15,2013-12-09 18:00:00,
2013-12-09 12:05:00,38.2,37.7,30.17,NNW,342,2.0,5.0,98,0.00,,,0.03,Wunderground v.1.15,2013-12-09 18:05:00,
2013-12-09 12:10:00,38.3,37.8,30.17,North,5,2.0,5.0,98,0.00,,,0.03,Wunderground v.1.15,2013-12-09 18:10:00,
2013-12-09 12:20:00,38.0,37.5,30.18,NE,55,2.0,5.0,98,0.00,,,0.03,Wunderground v.1.15,2013-12-09 18:20:00,
2013-12-09 12:25:00,38.0,37.5,30.17,East,87,2.0,5.0,98,0.00,,,0.03,Wunderground v.1.15,2013-12-09 18:25:00,
2013-12-09 12:30:00,38.0,37.5,30.17,North,11,2.0,2.0,98,0.00,,,0.03,Wunderground v.1.15,2013-12-09 18:30:00,
2013-12-09 12:35:00,38.2,37.7,30.17,NNE,18,2.0,5.0,98,0.00,,,0.03,Wunderground v.1.15,2013-12-09 18:35:00,
2013-12-09 12:45:00,38.4,37.9,30.17,NNE,28,2.0,2.0,98,0.00,,,0.04,Wunderground v.1.15,2013-12-09 18:45:00,
2013-12-09 12:50:00,38.4,37.9,30.17,NE,42,3.0,3.0,98,0.00,,,0.04,Wunderground v.1.15,2013-12-09 18:50:00,
2013-12-09 12:55:00,38.3,37.8,30.16,NE,55,2.0,5.0,98,0.00,,,0.04,Wunderground v.1.15,2013-12-09 18:55:00,
2013-12-09 13:00:00,38.4,37.9,30.16,ENE,61,2.0,5.0,98,0.00,,,0.04,Wunderground v.1.15,2013-12-09 19:00:00,
2013-12-09 13:05:00,38.4,37.9,30.16,NNW,341,2.0,5.0,98,0.00,,,0.04,Wunderground v.1.15,2013-12-09 19:05:00,
2013-12-09 13:15:00,38.6,38.1,30.15,NNE,15,2.0,5.0,98,0.00,,,0.04,Wunderground v.1.15,2013-12-09 19:15:00,
2013-12-09 13:20:00,38.7,38.2,30.15,North,5,2.0,2.0,98,0.00,,,0.04,Wunderground v.1.15,2013-12-09 19:20:00,
2013-12-09 13:25:00,38.9,38.4,30.15,NE,54,2.0,5.0,98,0.00,,,0.04,Wunderground v.1.15,2013-12-09 19:25:00,
2013-12-09 13:30:00,38.9,38.4,30.14,NNE,22,2.0,2.0,98,0.00,,,0.04,Wunderground v.1.15,2013-12-09 19:30:00,
2013-12-09 13:35:00,39.0,38.2,30.14,ENE,77,2.0,5.0,97,0.00,,,0.04,Wunderground v.1.15,2013-12-09 19:35:00,
2013-12-09 13:45:00,39.2,38.4,30.14,NNE,22,2.0,5.0,97,0.00,,,0.04,Wunderground v.1.15,2013-12-09 19:45:00,
2013-12-09 13:50:00,39.1,38.3,30.14,NE,45,2.0,5.0,97,0.00,,,0.04,Wunderground v.1.15,2013-12-09 19:50:00,
2013-12-09 13:55:00,39.1,38.3,30.14,North,350,2.0,5.0,97,0.00,,,0.04,Wunderground v.1.15,2013-12-09 19:55:00,
2013-12-09 14:00:00,39.1,38.3,30.14,NNE,22,2.0,5.0,97,0.00,,,0.04,Wunderground v.1.15,2013-12-09 20:00:00,
2013-12-09 14:05:00,39.2,38.4,30.14,NNE,27,2.0,5.0,97,0.00,,,0.04,Wunderground v.1.15,2013-12-09 20:05:00,
2013-12-09 14:15:00,39.3,38.5,30.14,NE,39,2.0,5.0,97,0.00,,,0.04,Wunderground v.1.15,2013-12-09 20:15:00,
2013-12-09 14:20:00,39.2,38.4,30.14,East,88,2.0,2.0,97,0.00,,,0.04,Wunderground v.1.15,2013-12-09 20:20:00,
2013-12-09 14:25:00,39.3,38.5,30.14,NE,55,1.0,3.0,97,0.00,,,0.04,Wunderground v.1.15,2013-12-09 20:25:00,
2013-12-09 14:30:00,39.2,38.4,30.14,NNE,13,1.0,5.0,97,0.00,,,0.04,Wunderground v.1.15,2013-12-09 20:30:00,
2013-12-09 14:35:00,39.1,38.3,30.14,NE,42,2.0,5.0,97,0.00,,,0.04,Wunderground v.1.15,2013-12-09 20:35:00,
2013-12-09 14:40:00,39.1,38.3,30.14,ENE,75,2.0,5.0,97,0.00,,,0.04,Wunderground v.1.15,2013-12-09 20:40:00,
2013-12-09 14:50:00,39.1,38.3,30.14,NE,49,2.0,2.0,97,0.00,,,0.04,Wunderground v.1.15,2013-12-09 20:50:00,
2013-12-09 14:55:00,39.2,38.4,30.15,North,360,2.0,3.0,97,0.00,,,0.04,Wunderground v.1.15,2013-12-09 20:55:00,
2013-12-09 15:05:00,39.1,38.3,30.15,NNE,16,2.0,5.0,97,0.00,,,0.04,Wunderground v.1.15,2013-12-09 21:05:00,
2013-12-09 15:10:00,39.0,38.2,30.15,NE,52,2.0,2.0,97,0.00,,,0.04,Wunderground v.1.15,2013-12-09 21:10:00,
2013-12-09 15:20:00,38.8,38.0,30.15,ENE,64,3.0,5.0,97,0.00,,,0.04,Wunderground v.1.15,2013-12-09 21:20:00,
2013-12-09 15:25:00,38.6,37.8,30.15,NNE,29,3.0,5.0,97,0.00,,,0.04,Wunderground v.1.15,2013-12-09 21:25:00,
2013-12-09 15:30:00,38.6,37.8,30.16,NNW,346,3.0,3.0,97,0.00,,,0.04,Wunderground v.1.15,2013-12-09 21:30:00,
2013-12-09 15:35:00,38.6,37.8,30.15,North,351,2.0,5.0,97,0.00,,,0.04,Wunderground v.1.15,2013-12-09 21:35:00,
2013-12-09 15:45:00,38.3,37.5,30.16,ENE,58,3.0,5.0,97,0.00,,,0.04,Wunderground v.1.15,2013-12-09 21:45:00,
2013-12-09 15:50:00,38.1,37.3,30.15,NNE,19,3.0,5.0,97,0.00,,,0.04,Wunderground v.1.15,2013-12-09 21:50:00,
2013-12-09 15:55:00,38.1,37.3,30.15,NE,42,2.0,5.0,97,0.00,,,0.04,Wunderground v.1.15,2013-12-09 21:55:00,
2013-12-09 16:00:00,38.0,37.2,30.16,ENE,78,2.0,5.0,97,0.00,,,0.04,Wunderground v.1.15,2013-12-09 22:00:00,
2013-12-09 16:05:00,37.8,37.0,30.16,ENE,57,2.0,5.0,97,0.00,,,0.04,Wunderground v.1.15,2013-12-09 22:05:00,
2013-12-09 16:15:00,37.8,37.0,30.16,North,5,2.0,5.0,97,0.00,,,0.04,Wunderground v.1.15,2013-12-09 22:15:00,
2013-12-09 16:20:00,37.8,37.0,30.17,ENE,67,3.0,5.0,97,0.00,,,0.04,Wunderground v.1.15,2013-12-09 22:20:00,
2013-12-09 16:25:00,37.8,37.0,30.17,NNW,336,3.0,5.0,97,0.00,,,0.04,Wunderground v.1.15,2013-12-09 22:25:00,
2013-12-09 16:30:00,37.7,36.9,30.18,ENE,67,3.0,5.0,97,0.00,,,0.04,Wunderground v.1.15,2013-12-09 22:30:00,
2013-12-09 16:35:00,37.5,36.7,30.18,NNE,14,3.0,5.0,97,0.00,,,0.04,Wunderground v.1.15,2013-12-09 22:35:00,
2013-12-09 16:45:00,37.0,36.2,30.18,ENE,57,3.0,5.0,97,0.00,,,0.04,Wunderground v.1.15,2013-12-09 22:45:00,
2013-12-09 16:50:00,36.8,36.0,30.19,NE,38,2.0,5.0,97,0.00,,,0.04,Wunderground v.1.15,2013-12-09 22:50:00,
2013-12-09 16:55:00,36.6,35.8,30.19,North,11,2.0,5.0,97,0.00,,,0.04,Wunderground v.1.15,2013-12-09 22:55:00,
2013-12-09 17:00:00,36.4,35.6,30.19,North,5,3.0,3.0,97,0.00,,,0.04,Wunderground v.1.15,2013-12-09 23:00:00,
2013-12-09 17:05:00,36.3,35.5,30.20,NE,41,3.0,5.0,97,0.00,,,0.04,Wunderground v.1.15,2013-12-09 23:05:00,
2013-12-09 17:15:00,36.2,35.4,30.21,NNE,19,4.0,7.0,97,0.00,,,0.04,Wunderground v.1.15,2013-12-09 23:15:00,
2013-12-09 17:20:00,36.1,35.3,30.21,NNE,22,4.0,9.0,97,0.00,,,0.04,Wunderground v.1.15,2013-12-09 23:20:00,
2013-12-09 17:25:00,36.0,35.2,30.22,NNW,346,4.0,9.0,97,0.00,,,0.04,Wunderground v.1.15,2013-12-09 23:25:00,
2013-12-09 17:30:00,35.8,35.0,30.22,NNE,32,4.0,5.0,97,0.00,,,0.04,Wunderground v.1.15,2013-12-09 23:30:00,
2013-12-09 17:35:00,35.5,34.7,30.22,NE,38,4.0,7.0,97,0.00,,,0.04,Wunderground v.1.15,2013-12-09 23:35:00,
2013-12-09 17:40:00,35.2,34.4,30.23,NW,326,5.0,5.0,97,0.00,,,0.04,Wunderground v.1.15,2013-12-09 23:40:00,
2013-12-09 17:50:00,34.9,34.1,30.23,ENE,67,4.0,4.0,97,0.00,,,0.04,Wunderground v.1.15,2013-12-09 23:50:00,
2013-12-09 17:55:00,34.6,33.8,30.23,NNE,30,4.0,5.0,97,0.00,,,0.04,Wunderground v.1.15,2013-12-09 23:55:00,
2013-12-09 18:00:00,34.5,33.7,30.23,ENE,59,4.0,5.0,97,0.00,,,0.04,Wunderground v.1.15,2013-12-10 00:00:00,
2013-12-09 18:05:00,34.2,33.4,30.24,NNE,25,4.0,5.0,97,0.00,,,0.04,Wunderground v.1.15,2013-12-10 00:05:00,
2013-12-09 18:10:00,33.9,33.1,30.25,ENE,61,4.0,4.0,97,0.00,,,0.04,Wunderground v.1.15,2013-12-10 00:10:00,
2013-12-09 18:20:00,33.4,32.6,30.25,North,10,5.0,5.0,97,0.00,,,0.04,Wunderground v.1.15,2013-12-10 00:20:00,
2013-12-09 18:25:00,33.3,32.5,30.26,NNE,27,4.0,6.0,97,0.00,,,0.04,Wunderground v.1.15,2013-12-10 00:25:00,
2013-12-09 18:30:00,33.2,32.4,30.26,NE,38,4.0,6.0,97,0.00,,,0.04,Wunderground v.1.15,2013-12-10 00:30:00,
2013-12-09 18:35:00,33.1,32.3,30.26,NNE,19,5.0,6.0,97,0.00,,,0.04,Wunderground v.1.15,2013-12-10 00:35:00,
2013-12-09 18:45:00,33.0,32.2,30.27,North,5,4.0,5.0,97,0.00,,,0.04,Wunderground v.1.15,2013-12-10 00:45:00,
2013-12-09 18:50:00,33.0,32.2,30.28,North,355,4.0,4.0,97,0.00,,,0.04,Wunderground v.1.15,2013-12-10 00:50:00,
2013-12-09 18:55:00,32.8,32.0,30.28,North,5,4.0,5.0,97,0.00,,,0.04,Wunderground v.1.15,2013-12-10 00:55:00,
2013-12-09 19:00:00,32.6,31.8,30.28,NE,38,5.0,5.0,97,0.00,,,0.04,Wunderground v.1.15,2013-12-10 01:00:00,
2013-12-09 19:05:00,32.6,31.8,30.29,NNE,24,4.0,5.0,97,0.00,,,0.04,Wunderground v.1.15,2013-12-10 01:05:00,
2013-12-09 19:10:00,32.4,31.6,30.29,North,355,4.0,6.0,97,0.00,,,0.04,Wunderground v.1.15,2013-12-10 01:10:00,
2013-12-09 19:20:00,32.0,31.2,30.30,NE,38,4.0,4.0,97,0.00,,,0.04,Wunderground v.1.15,2013-12-10 01:20:00,
2013-12-09 19:25:00,32.0,31.2,30.30,North,5,3.0,5.0,97,0.00,,,0.04,Wunderground v.1.15,2013-12-10 01:25:00,
2013-12-09 19:30:00,31.9,31.1,30.31,North,355,4.0,4.0,97,0.00,,,0.04,Wunderground v.1.15,2013-12-10 01:30:00,
2013-12-09 19:40:00,31.8,31.0,30.31,NNE,24,5.0,5.0,97,0.00,,,0.04,Wunderground v.1.15,2013-12-10 01:40:00,
2013-12-09 19:50:00,31.7,30.9,30.32,NNW,341,5.0,5.0,97,0.00,,,0.04,Wunderground v.1.15,2013-12-10 01:50:00,
2013-12-09 19:55:00,31.6,30.8,30.33,North,355,5.0,5.0,97,0.00,,,0.04,Wunderground v.1.15,2013-12-10 01:55:00,
2013-12-09 20:00:00,31.6,30.8,30.33,North,355,6.0,6.0,97,0.00,,,0.04,Wunderground v.1.15,2013-12-10 02:00:00,
2013-12-09 20:05:00,31.5,30.7,30.33,North,5,5.0,6.0,97,0.00,,,0.04,Wunderground v.1.15,2013-12-10 02:05:00,
2013-12-09 20:15:00,31.5,30.7,30.33,North,360,4.0,11.0,97,0.00,,,0.04,Wunderground v.1.15,2013-12-10 02:15:00,
2013-12-09 20:20:00,31.4,30.6,30.34,North,350,4.0,4.0,97,0.00,,,0.04,Wunderground v.1.15,2013-12-10 02:20:00,
2013-12-09 20:25:00,31.4,30.6,30.34,NNE,21,4.0,5.0,97,0.00,,,0.04,Wunderground v.1.15,2013-12-10 02:25:00,
2013-12-09 20:30:00,31.4,30.6,30.35,North,9,5.0,5.0,97,0.00,,,0.04,Wunderground v.1.15,2013-12-10 02:30:00,
2013-12-09 20:35:00,31.3,30.5,30.35,NNW,327,6.0,6.0,97,0.00,,,0.04,Wunderground v.1.15,2013-12-10 02:35:00,
2013-12-09 20:40:00,31.2,30.2,30.35,NNE,23,6.0,6.0,96,0.00,,,0.04,Wunderground v.1.15,2013-12-10 02:40:00,
2013-12-09 20:50:00,31.2,30.4,30.36,NNW,347,5.0,5.0,97,0.00,,,0.04,Wunderground v.1.15,2013-12-10 02:50:00,
2013-12-09 21:00:00,31.2,30.4,30.36,North,5,5.0,5.0,97,0.00,,,0.04,Wunderground v.1.15,2013-12-10 03:00:00,
2013-12-09 21:05:00,31.1,30.3,30.36,NE,38,5.0,5.0,97,0.00,,,0.04,Wunderground v.1.15,2013-12-10 03:05:00,
2013-12-09 21:15:00,31.1,30.3,30.37,NNE,28,5.0,5.0,97,0.00,,,0.04,Wunderground v.1.15,2013-12-10 03:15:00,
2013-12-09 21:20:00,31.0,30.2,30.37,NNE,17,4.0,7.0,97,0.00,,,0.04,Wunderground v.1.15,2013-12-10 03:20:00,
2013-12-09 21:25:00,31.0,30.2,30.37,NNW,336,5.0,7.0,97,0.00,,,0.04,Wunderground v.1.15,2013-12-10 03:25:00,
2013-12-09 21:30:00,30.9,30.1,30.37,NNE,19,6.0,9.0,97,0.00,,,0.04,Wunderground v.1.15,2013-12-10 03:30:00,
2013-12-09 21:35:00,30.8,30.0,30.37,North,355,6.0,9.0,97,0.00,,,0.04,Wunderground v.1.15,2013-12-10 03:35:00,
2013-12-09 21:45:00,30.8,30.0,30.38,NNE,23,4.0,6.0,97,0.00,,,0.04,Wunderground v.1.15,2013-12-10 03:45:00,
2013-12-09 21:50:00,30.7,30.0,30.38,North,355,4.0,5.0,97,0.00,,,0.04,Wunderground v.1.15,2013-12-10 03:50:00,
2013-12-09 21:55:00,30.7,30.0,30.39,NW,323,4.0,5.0,97,0.00,,,0.04,Wunderground v.1.15,2013-12-10 03:55:00,
2013-12-09 22:00:00,30.7,30.0,30.39,NNW,347,5.0,10.0,97,0.00,,,0.04,Wunderground v.1.15,2013-12-10 04:00:00,
2013-12-09 22:05:00,30.7,30.0,30.39,North,11,6.0,11.0,97,0.00,,,0.04,Wunderground v.1.15,2013-12-10 04:05:00,
2013-12-09 22:10:00,30.7,30.0,30.40,North,11,6.0,10.0,97,0.00,,,0.04,Wunderground v.1.15,2013-12-10 04:10:00,
2013-12-09 22:20:00,30.8,30.0,30.40,NNW,339,6.0,9.0,97,0.00,,,0.04,Wunderground v.1.15,2013-12-10 04:20:00,
2013-12-09 22:25:00,30.8,30.0,30.40,NNE,24,5.0,9.0,97,0.00,,,0.04,Wunderground v.1.15,2013-12-10 04:25:00,
2013-12-09 22:30:00,30.7,30.0,30.40,North,9,5.0,5.0,97,0.00,,,0.04,Wunderground v.1.15,2013-12-10 04:30:00,
2013-12-09 22:40:00,30.6,29.9,30.41,NNE,19,6.0,7.0,97,0.00,,,0.04,Wunderground v.1.15,2013-12-10 04:40:00,
2013-12-09 22:50:00,30.4,29.4,30.41,North,351,8.0,8.0,96,0.00,,,0.04,Wunderground v.1.15,2013-12-10 04:50:00,
2013-12-09 22:55:00,30.3,29.3,30.42,NNW,342,8.0,9.0,96,0.00,,,0.04,Wunderground v.1.15,2013-12-10 04:55:00,
2013-12-09 23:00:00,30.3,29.3,30.42,NNW,346,8.0,8.0,96,0.00,,,0.04,Wunderground v.1.15,2013-12-10 05:00:00,
2013-12-09 23:05:00,30.3,29.3,30.41,NNW,340,7.0,8.0,96,0.00,,,0.04,Wunderground v.1.15,2013-12-10 05:05:00,
2013-12-09 23:10:00,30.2,29.2,30.42,NNE,22,7.0,8.0,96,0.00,,,0.04,Wunderground v.1.15,2013-12-10 05:10:00,
2013-12-09 23:15:00,30.2,29.2,30.42,NE,51,7.0,8.0,96,0.00,,,0.04,Wunderground v.1.15,2013-12-10 05:15:00,
2013-12-09 23:25:00,29.8,28.5,30.42,NNW,348,8.0,8.0,95,0.00,,,0.04,Wunderground v.1.15,2013-12-10 05:25:00,
2013-12-09 23:30:00,29.7,28.4,30.42,NW,318,8.0,8.0,95,0.00,,,0.04,Wunderground v.1.15,2013-12-10 05:30:00,
2013-12-09 23:40:00,29.7,28.4,30.43,NW,319,7.0,15.0,95,0.00,,,0.04,Wunderground v.1.15,2013-12-10 05:40:00,
2013-12-09 23:45:00,29.7,28.2,30.43,North,350,8.0,15.0,94,0.00,,,0.04,Wunderground v.1.15,2013-12-10 05:45:00,
2013-12-09 23:50:00,29.7,27.9,30.43,North,5,9.0,10.0,93,0.00,,,0.04,Wunderground v.1.15,2013-12-10 05:50:00,
2013-12-09 23:55:00,29.7,27.9,30.44,North,5,9.0,10.0,93,0.00,,,0.04,Wunderground v.1.15,2013-12-10 05:55:00,